| time (UTC) | temp F | wind direction | speed MPH | gust MPH | rain 1hr in | rain 24hr in | rain mn in | humidity % | barometer mb |
| 20260903115909 | 68 | 202 | 7.0 | 15.0 | 0.00 | 0.00 | 0.00 | 79 | 1020.9 |
| 20260903115409 | 69 | 214 | 7.0 | 14.0 | 0.00 | 0.00 | 0.00 | 78 | 1020.9 |
| 20260903113407 | 70 | 239 | 7.0 | 15.0 | 0.00 | 0.00 | 0.00 | 74 | 1020.8 |
| 20260903112909 | 70 | 245 | 6.0 | 13.0 | 0.00 | 0.00 | 0.00 | 75 | 1020.8 |
| 20260903111908 | 69 | 239 | 7.0 | 12.0 | 0.00 | 0.00 | 0.00 | 75 | 1020.9 |
| 20260903110908 | 70 | 233 | 6.0 | 16.0 | 0.00 | 0.00 | 0.00 | 73 | 1020.7 |
| 20260903105908 | 70 | 259 | 7.0 | 13.0 | 0.00 | 0.00 | 0.00 | 74 | 1020.7 |
| 20260903104908 | 69 | 236 | 9.0 | 14.0 | 0.00 | 0.00 | 0.00 | 74 | 1020.5 |
| 20260903103908 | 69 | 241 | 7.0 | 16.0 | 0.00 | 0.00 | 0.00 | 73 | 1020.4 |
| 20260903103407 | 69 | 226 | 7.0 | 15.0 | 0.00 | 0.00 | 0.00 | 73 | 1020.4 |
| 20260903102911 | 69 | 231 | 6.0 | 18.0 | 0.00 | 0.00 | 0.00 | 73 | 1020.4 |
| 20260903101908 | 69 | 211 | 6.0 | 8.0 | 0.00 | 0.00 | 0.00 | 75 | 1020.3 |
| 20260903101413 | 68 | 217 | 7.0 | 13.0 | 0.00 | 0.00 | 0.00 | 75 | 1020.3 |
| 20260903093407 | 67 | 226 | 8.0 | 15.0 | 0.00 | 0.00 | 0.00 | 77 | 1020.5 |
| 20260903091907 | 67 | 204 | 7.0 | 13.0 | 0.00 | 0.00 | 0.00 | 77 | 1020.8 |
| 20260903091408 | 67 | 217 | 7.0 | 17.0 | 0.00 | 0.00 | 0.00 | 76 | 1020.8 |
| 20260903090407 | 67 | 195 | 8.0 | 13.0 | 0.00 | 0.00 | 0.00 | 76 | 1020.8 |
| 20260903085909 | 67 | 237 | 8.0 | 16.0 | 0.00 | 0.00 | 0.00 | 75 | 1020.8 |
| 20260903084408 | 67 | 227 | 9.0 | 17.0 | 0.00 | 0.00 | 0.00 | 75 | 1020.7 |
| 20260903083907 | 67 | 193 | 9.0 | 17.0 | 0.00 | 0.00 | 0.00 | 76 | 1020.5 |
| 20260903083407 | 67 | 217 | 9.0 | 21.0 | 0.00 | 0.00 | 0.00 | 75 | 1020.5 |
| 20260903082909 | 67 | 224 | 9.0 | 18.0 | 0.00 | 0.00 | 0.00 | 76 | 1020.5 |
| 20260903082407 | 67 | 215 | 9.0 | 16.0 | 0.00 | 0.00 | 0.00 | 76 | 1020.5 |
| 20260903081407 | 67 | 208 | 7.0 | 15.0 | 0.00 | 0.00 | 0.00 | 76 | 1020.5 |
| 20260903080908 | 67 | 193 | 7.0 | 14.0 | 0.00 | 0.00 | 0.00 | 75 | 1020.6 |
| 20260903075408 | 66 | 221 | 6.0 | 12.0 | 0.00 | 0.00 | 0.00 | 74 | 1020.5 |
| 20260903073908 | 66 | 229 | 9.0 | 12.0 | 0.00 | 0.00 | 0.00 | 73 | 1020.4 |
| 20260903073408 | 66 | 200 | 9.0 | 16.0 | 0.00 | 0.00 | 0.00 | 73 | 1020.4 |
| 20260903072407 | 66 | 230 | 8.0 | 13.0 | 0.00 | 0.00 | 0.00 | 72 | 1020.4 |
| 20260903071908 | 66 | 234 | 7.0 | 15.0 | 0.00 | 0.00 | 0.00 | 72 | 1020.4 |
| 20260903071407 | 66 | 232 | 7.0 | 18.0 | 0.00 | 0.00 | 0.00 | 71 | 1020.4 |
| 20260903064407 | 66 | 201 | 7.0 | 12.0 | 0.00 | 0.00 | 0.00 | 69 | 1020.5 |
| 20260903063908 | 66 | 226 | 6.0 | 14.0 | 0.00 | 0.00 | 0.00 | 68 | 1020.2 |
| 20260903063407 | 66 | 216 | 6.0 | 14.0 | 0.00 | 0.00 | 0.00 | 68 | 1020.2 |
| 20260903055909 | 65 | 234 | 6.0 | 14.0 | 0.00 | 0.00 | 0.00 | 65 | 1020.4 |
| 20260903055416 | 65 | 212 | 7.0 | 10.0 | 0.00 | 0.00 | 0.00 | 65 | 1020.5 |
| 20260903054907 | 65 | 206 | 7.0 | 10.0 | 0.00 | 0.00 | 0.00 | 64 | 1020.5 |
| 20260903053907 | 65 | 220 | 7.0 | 12.0 | 0.00 | 0.00 | 0.00 | 63 | 1020.2 |
| 20260903045908 | 66 | 264 | 6.0 | 10.0 | 0.00 | 0.00 | 0.00 | 62 | 1020.3 |
| 20260903045407 | 66 | 247 | 6.0 | 9.0 | 0.00 | 0.00 | 0.00 | 62 | 1020.0 |
| 20260903044907 | 66 | 226 | 6.0 | 8.0 | 0.00 | 0.00 | 0.00 | 62 | 1020.0 |
| 20260903044407 | 66 | 205 | 6.0 | 12.0 | 0.00 | 0.00 | 0.00 | 62 | 1020.0 |
| 20260903042908 | 65 | 175 | 5.0 | 6.0 | 0.00 | 0.00 | 0.00 | 65 | 1020.0 |
| 20260903042407 | 64 | 179 | 5.0 | 8.0 | 0.00 | 0.00 | 0.00 | 65 | 1019.9 |
| 20260903041908 | 64 | 167 | 3.0 | 7.0 | 0.00 | 0.00 | 0.00 | 66 | 1019.9 |
| 20260903041408 | 64 | 170 | 3.0 | 9.0 | 0.00 | 0.00 | 0.00 | 67 | 1019.9 |
| 20260903040908 | 64 | 177 | 3.0 | 7.0 | 0.00 | 0.00 | 0.00 | 68 | 1020.1 |
| 20260903033907 | 63 | 167 | 1.0 | 3.0 | 0.00 | 0.00 | 0.00 | 69 | 1020.5 |
| 20260903033407 | 62 | 160 | 0.0 | 3.0 | 0.00 | 0.00 | 0.00 | 71 | 1020.5 |
| 20260903030407 | 64 | 157 | 5.0 | 3.0 | 0.00 | 0.00 | 0.00 | 67 | 1020.5 |
| 20260903025907 | 64 | 157 | 3.0 | 8.0 | 0.00 | 0.00 | 0.00 | 67 | 1020.5 |
| 20260903023908 | 64 | 188 | 3.0 | 8.0 | 0.00 | 0.00 | 0.00 | 67 | 1020.5 |
| 20260903023408 | 64 | 200 | 3.0 | 6.0 | 0.00 | 0.00 | 0.00 | 67 | 1020.5 |
| 20260903020406 | 64 | 212 | 5.0 | 5.0 | 0.00 | 0.00 | 0.00 | 70 | 1020.9 |
| 20260903015908 | 64 | 216 | 5.0 | 8.0 | 0.00 | 0.00 | 0.00 | 70 | 1020.9 |
| 20260903013407 | 60 | 228 | 0.0 | 5.0 | 0.00 | 0.00 | 0.00 | 85 | 1021.1 |
| 20260903012407 | 59 | 286 | 0.0 | 0.0 | 0.00 | 0.00 | 0.00 | 87 | 1021.1 |
| 20260903011907 | 59 | 286 | 0.0 | 2.0 | 0.00 | 0.00 | 0.00 | 87 | 1021.1 |
| 20260903011407 | 59 | 270 | 0.0 | 5.0 | 0.00 | 0.00 | 0.00 | 87 | 1021.1 |
| 20260903010408 | 59 | 260 | 0.0 | 2.0 | 0.00 | 0.00 | 0.00 | 87 | 1021.2 |
| 20260903005909 | 59 | 259 | 0.0 | 0.0 | 0.00 | 0.00 | 0.00 | 87 | 1021.2 |
| 20260903004908 | 58 | 299 | 0.0 | 2.0 | 0.00 | 0.00 | 0.00 | 86 | 1021.3 |
| 20260903004407 | 58 | 299 | 0.0 | 2.0 | 0.00 | 0.00 | 0.00 | 85 | 1021.3 |
| 20260903003908 | 58 | 299 | 0.0 | 2.0 | 0.00 | 0.00 | 0.00 | 85 | 1021.4 |
| 20260903002908 | 59 | 298 | 2.0 | 2.0 | 0.00 | 0.00 | 0.00 | 85 | 1021.4 |
| 20260903002407 | 59 | 298 | 2.0 | 5.0 | 0.00 | 0.00 | 0.00 | 84 | 1021.5 |
| 20260903001907 | 59 | 323 | 1.0 | 3.0 | 0.00 | 0.00 | 0.00 | 84 | 1021.5 |
| 20260903000407 | 59 | 345 | 2.0 | 2.0 | 0.00 | 0.00 | 0.00 | 84 | 1021.6 |
| 20260902235909 | 59 | 339 | 2.0 | 3.0 | 0.00 | 0.00 | 0.00 | 84 | 1021.6 |
| 20260902234907 | 57 | 171 | 2.0 | 5.0 | 0.00 | 0.00 | 0.00 | 89 | 1021.8 |
| 20260902234407 | 57 | 267 | 2.0 | 3.0 | 0.00 | 0.00 | 0.00 | 90 | 1021.8 |
| 20260902232407 | 56 | 292 | 0.0 | 2.0 | 0.00 | 0.00 | 0.00 | 90 | 1022.0 |
| 20260902231907 | 56 | 292 | 0.0 | 0.0 | 0.00 | 0.00 | 0.00 | 90 | 1022.0 |
| 20260902225909 | 56 | 265 | 0.0 | 2.0 | 0.00 | 0.00 | 0.00 | 91 | 1022.0 |
| 20260902225406 | 56 | 258 | 0.0 | 2.0 | 0.00 | 0.00 | 0.00 | 90 | 1022.0 |
| 20260902224907 | 56 | 258 | 0.0 | 2.0 | 0.00 | 0.00 | 0.00 | 90 | 1022.0 |
| 20260902223407 | 56 | 257 | 0.0 | 0.0 | 0.00 | 0.00 | 0.00 | 91 | 1022.2 |
| 20260902222407 | 56 | 257 | 0.0 | 0.0 | 0.00 | 0.00 | 0.00 | 92 | 1022.3 |
| 20260902221907 | 56 | 257 | 0.0 | 2.0 | 0.00 | 0.00 | 0.00 | 92 | 1022.3 |
| 20260902221408 | 56 | 257 | 0.0 | 0.0 | 0.00 | 0.00 | 0.00 | 91 | 1022.3 |
| 20260902215908 | 55 | 257 | 0.0 | 0.0 | 0.00 | 0.00 | 0.00 | 90 | 1022.3 |
| 20260902214907 | 55 | 257 | 0.0 | 2.0 | 0.00 | 0.00 | 0.00 | 88 | 1022.3 |
| 20260902214407 | 55 | 83 | 0.0 | 0.0 | 0.00 | 0.00 | 0.00 | 89 | 1022.3 |
| 20260902213907 | 55 | 83 | 0.0 | 0.0 | 0.00 | 0.00 | 0.00 | 88 | 1022.3 |
| 20260902213407 | 56 | 83 | 0.0 | 0.0 | 0.00 | 0.00 | 0.00 | 87 | 1022.3 |
| 20260902212407 | 56 | 83 | 0.0 | 0.0 | 0.00 | 0.00 | 0.00 | 88 | 1022.4 |
| 20260902205406 | 57 | 84 | 0.0 | 0.0 | 0.00 | 0.00 | 0.00 | 87 | 1022.3 |
| 20260902204907 | 57 | 83 | 0.0 | 0.0 | 0.00 | 0.00 | 0.00 | 86 | 1022.3 |
| 20260902203907 | 57 | 83 | 0.0 | 0.0 | 0.00 | 0.00 | 0.00 | 86 | 1022.4 |
| 20260902203407 | 58 | 83 | 0.0 | 0.0 | 0.00 | 0.00 | 0.00 | 85 | 1022.4 |
| 20260902202406 | 58 | 83 | 0.0 | 2.0 | 0.00 | 0.00 | 0.00 | 85 | 1022.5 |
| 20260902201907 | 58 | 83 | 0.0 | 0.0 | 0.00 | 0.00 | 0.00 | 85 | 1022.5 |
| 20260902201406 | 58 | 83 | 0.0 | 0.0 | 0.00 | 0.00 | 0.00 | 85 | 1022.5 |
| 20260902195909 | 58 | 83 | 0.0 | 2.0 | 0.00 | 0.00 | 0.00 | 84 | 1022.5 |
| 20260902195412 | 59 | 92 | 0.0 | 2.0 | 0.00 | 0.00 | 0.00 | 84 | 1022.3 |
| 20260902194916 | 59 | 94 | 0.0 | 2.0 | 0.00 | 0.00 | 0.00 | 83 | 1022.3 |
| 20260902194409 | 59 | 144 | 0.0 | 2.0 | 0.00 | 0.00 | 0.00 | 83 | 1022.3 |
| 20260902192910 | 59 | 144 | 0.0 | 2.0 | 0.00 | 0.00 | 0.00 | 82 | 1022.4 |
| 20260902192407 | 59 | 144 | 0.0 | 0.0 | 0.00 | 0.00 | 0.00 | 82 | 1022.3 |
| 20260902190908 | 60 | 141 | 0.0 | 0.0 | 0.00 | 0.00 | 0.00 | 80 | 1022.3 |
| 20260902185907 | 60 | 141 | 0.0 | 0.0 | 0.00 | 0.00 | 0.00 | 80 | 1022.3 |
| 20260902183407 | 62 | 141 | 1.0 | 2.0 | 0.00 | 0.00 | 0.00 | 75 | 1022.2 |
| 20260902182909 | 63 | 141 | 1.0 | 2.0 | 0.00 | 0.00 | 0.00 | 74 | 1022.2 |
| 20260902181907 | 64 | 141 | 0.0 | 2.0 | 0.00 | 0.00 | 0.00 | 72 | 1022.1 |
| 20260902181407 | 64 | 213 | 0.0 | 0.0 | 0.00 | 0.00 | 0.00 | 71 | 1022.1 |
| 20260902180908 | 65 | 213 | 1.0 | 1.0 | 0.00 | 0.00 | 0.00 | 70 | 1022.0 |
| 20260902175407 | 66 | 222 | 2.0 | 3.0 | 0.00 | 0.00 | 0.00 | 65 | 1021.9 |
| 20260902174906 | 66 | 197 | 2.0 | 5.0 | 0.00 | 0.00 | 0.00 | 64 | 1021.9 |
| 20260902174407 | 67 | 221 | 1.0 | 5.0 | 0.00 | 0.00 | 0.00 | 63 | 1021.9 |
| 20260902173408 | 68 | 221 | 2.0 | 3.0 | 0.00 | 0.00 | 0.00 | 61 | 1021.9 |
| 20260902170908 | 69 | 217 | 2.0 | 5.0 | 0.00 | 0.00 | 0.00 | 59 | 1021.8 |
| 20260902165908 | 69 | 241 | 2.0 | 5.0 | 0.00 | 0.00 | 0.00 | 59 | 1021.8 |
| 20260902165406 | 69 | 197 | 2.0 | 5.0 | 0.00 | 0.00 | 0.00 | 59 | 1021.8 |
| 20260902164907 | 69 | 204 | 2.0 | 6.0 | 0.00 | 0.00 | 0.00 | 58 | 1021.8 |
| 20260902163907 | 69 | 225 | 5.0 | 5.0 | 0.00 | 0.00 | 0.00 | 55 | 1021.9 |
| 20260902163407 | 70 | 273 | 6.0 | 6.0 | 0.00 | 0.00 | 0.00 | 54 | 1021.9 |
| 20260902162406 | 71 | 227 | 3.0 | 9.0 | 0.00 | 0.00 | 0.00 | 53 | 1021.9 |
| 20260902161907 | 71 | 222 | 4.0 | 6.0 | 0.00 | 0.00 | 0.00 | 54 | 1021.9 |
| 20260902161406 | 71 | 267 | 5.0 | 7.0 | 0.00 | 0.00 | 0.00 | 54 | 1021.9 |
| 20260902160406 | 70 | 236 | 5.0 | 9.0 | 0.00 | 0.00 | 0.00 | 54 | 1022.0 |
| 20260902155406 | 70 | 254 | 2.0 | 7.0 | 0.00 | 0.00 | 0.00 | 55 | 1022.1 |
| 20260902154907 | 70 | 234 | 4.0 | 7.0 | 0.00 | 0.00 | 0.00 | 57 | 1022.1 |
| 20260902154408 | 70 | 240 | 5.0 | 6.0 | 0.00 | 0.00 | 0.00 | 57 | 1022.1 |
| 20260902153407 | 69 | 235 | 5.0 | 9.0 | 0.00 | 0.00 | 0.00 | 57 | 1022.2 |
| 20260902145407 | 71 | 237 | 5.0 | 12.0 | 0.00 | 0.00 | 0.00 | 56 | 1022.3 |
| 20260902143407 | 71 | 216 | 3.0 | 12.0 | 0.00 | 0.00 | 0.00 | 55 | 1022.2 |
| 20260902142907 | 71 | 281 | 3.0 | 7.0 | 0.00 | 0.00 | 0.00 | 52 | 1022.2 |
| 20260902142406 | 70 | 275 | 2.0 | 7.0 | 0.00 | 0.00 | 0.00 | 55 | 1022.2 |
| 20260902140907 | 71 | 241 | 3.0 | 15.0 | 0.00 | 0.00 | 0.00 | 57 | 1022.3 |
| 20260902132406 | 69 | 257 | 5.0 | 8.0 | 0.00 | 0.00 | 0.00 | 56 | 1022.4 |
| 20260902131907 | 69 | 298 | 3.0 | 8.0 | 0.00 | 0.00 | 0.00 | 55 | 1022.4 |
| 20260902125908 | 69 | 267 | 4.0 | 9.0 | 0.00 | 0.00 | 0.00 | 55 | 1022.4 |
| 20260902125406 | 69 | 312 | 5.0 | 6.0 | 0.00 | 0.00 | 0.00 | 54 | 1022.5 |
| 20260902124907 | 69 | 285 | 3.0 | 8.0 | 0.00 | 0.00 | 0.00 | 53 | 1022.5 |
| 20260902124407 | 69 | 12 | 3.0 | 8.0 | 0.00 | 0.00 | 0.00 | 55 | 1022.5 |
| 20260902123407 | 69 | 280 | 2.0 | 7.0 | 0.00 | 0.00 | 0.00 | 57 | 1022.5 |
| 20260902122908 | 69 | 301 | 3.0 | 7.0 | 0.00 | 0.00 | 0.00 | 57 | 1022.5 |
| 20260902122406 | 69 | 307 | 3.0 | 6.0 | 0.00 | 0.00 | 0.00 | 56 | 1022.5 |
| 20260902121907 | 69 | 181 | 3.0 | 6.0 | 0.00 | 0.00 | 0.00 | 57 | 1022.5 |
| 20260902121406 | 69 | 249 | 3.0 | 8.0 | 0.00 | 0.00 | 0.00 | 59 | 1022.5 |
| 20260902120407 | 68 | 302 | 5.0 | 8.0 | 0.00 | 0.00 | 0.00 | 61 | 1022.6 |